Hillsboro, OR

9:45 AM PST on February 27, 2017 (GMT -0800)
Portland-Hillsboro

Weather History for KHIO - April, 2014

Change the Weather History Date:

Wednesday, April 9, 2014

  Actual Average Record
Temperature  
Mean Temperature 51 °F 49 °F  
Max Temperature 62 °F 59 °F 80 °F (1985)
Min Temperature 40 °F 39 °F 31 °F (1982)
Degree Days  
Heating Degree Days 14 16  
Month to date heating degree days 124 148  
Since 1 July heating degree days 4368 4262  
Cooling Degree Days 0 0  
Month to date cooling degree days 0 0  
Year to date cooling degree days 0 0  
Growing Degree Days 1 (Base 50)    
Moisture  
Dew Point 41 °F    
Average Humidity 66    
Maximum Humidity 89    
Minimum Humidity 43    
Precipitation  
Precipitation T in 0.12 in 1.32 in (1971)
Month to date precipitation 0.75 1.05  
Year to date precipitation 14.29 15.25  
Snow  
Snow 0.00 in - - ()
Month to date snowfall  
Since 1 July snowfall 0.0  
Snow Depth 0.00 in    
Sea Level Pressure  
Sea Level Pressure 30.22 in    
Wind  
Wind Speed 6 mph (NNW)    
Max Wind Speed 14 mph    
Max Gust Speed 17 mph    
Visibility 10 miles    
Events Rain    
T = Trace of Precipitation, MM = Missing Value Source: NWS Daily Summary

Daily Weather History Graph

Daily Weather History Graph

Search for Another Location

Airport or City:

Trip Planner

Search our weather history database for the weather conditions in past years. The results will help you decide how hot, cold, wet, or windy it might be!

Date:

Astronomy

Apr. 09, 2014 Rise Set
Actual Time 6:36 AM PDT 7:50 PM PDT
Civil Twilight 6:06 AM PDT 8:21 PM PDT
Nautical Twilight 5:29 AM PDT 8:57 PM PDT
Astronomical Twilight 4:51 AM PDT 9:36 PM PDT
Moon 2:29 PM PDT (4/9) 3:44 AM PDT (4/9)
Length of Visible Light 14h 14m
Length of Day
13h 13m
Waxing Gibbous, 72% of the Moon is Illuminated
Apr 9
Waxing Gibbous
Apr 15
Full
Apr 22
Last Quarter
Apr 28
New
May 6
First Quarter

Hourly Weather History & Observations

Time (PDT) Temp. Windchill Dew Point Humidity Pressure Visibility Wind Dir Wind Speed Gust Speed Precip Events Conditions
12:53 AM 50.0 °F - 46.0 °F 86% 30.19 in 9.0 mi NNW 6.9 mph - 0.13 in Rain Light Rain
1:53 AM 50.0 °F - 45.0 °F 83% 30.19 in 10.0 mi NNW 10.4 mph - 0.00 in   Mostly Cloudy
2:53 AM 48.0 °F - 44.1 °F 86% 30.19 in 10.0 mi NNW 6.9 mph - N/A   Clear
3:53 AM 46.0 °F 43.9 °F 43.0 °F 89% 30.20 in 10.0 mi WNW 4.6 mph - N/A   Clear
4:53 AM 45.0 °F 41.2 °F 41.0 °F 86% 30.21 in 10.0 mi WNW 6.9 mph - N/A   Clear
5:53 AM 43.0 °F 41.3 °F 39.9 °F 89% 30.21 in 10.0 mi WNW 3.5 mph - N/A   Clear
6:53 AM 41.0 °F - 37.9 °F 89% 30.22 in 10.0 mi Calm Calm - N/A   Clear
7:53 AM 44.1 °F 42.5 °F 41.0 °F 89% 30.24 in 10.0 mi NNW 3.5 mph - N/A   Clear
8:53 AM 48.0 °F - 41.0 °F 77% 30.25 in 10.0 mi NNW 5.8 mph - N/A   Clear
9:53 AM 51.1 °F - 39.0 °F 63% 30.26 in 10.0 mi Calm Calm - N/A   Clear
10:53 AM 53.1 °F - 39.9 °F 61% 30.27 in 10.0 mi Variable 3.5 mph - N/A   Partly Cloudy
11:53 AM 55.0 °F - 37.9 °F 53% 30.26 in 10.0 mi North - - N/A   Partly Cloudy
12:53 PM 55.9 °F - 41.0 °F 57% 30.25 in 10.0 mi Variable 3.5 mph - N/A   Partly Cloudy
1:53 PM 57.9 °F - 41.0 °F 53% 30.24 in 10.0 mi NE 4.6 mph - N/A   Clear
2:53 PM 60.1 °F - 42.1 °F 51% 30.22 in 10.0 mi Variable 5.8 mph - N/A   Clear
3:53 PM 61.0 °F - 42.1 °F 50% 30.21 in 10.0 mi East 5.8 mph - N/A   Clear
4:53 PM 61.0 °F - 42.1 °F 50% 30.19 in 10.0 mi Variable 5.8 mph - N/A   Clear
5:53 PM 60.1 °F - 39.0 °F 46% 30.19 in 10.0 mi East 10.4 mph - N/A   Clear
6:53 PM 57.9 °F - 39.0 °F 49% 30.18 in 10.0 mi NNE 5.8 mph - N/A   Clear
7:53 PM 55.0 °F - 34.0 °F 45% 30.18 in 10.0 mi NNW 9.2 mph - N/A   Clear
8:53 PM 52.0 °F - 39.9 °F 63% 30.20 in 10.0 mi NW 11.5 mph - N/A   Clear
9:53 PM 48.9 °F - 41.0 °F 74% 30.21 in 10.0 mi NW 8.1 mph - N/A   Clear
10:53 PM 48.0 °F - 39.9 °F 74% 30.22 in 10.0 mi WNW 9.2 mph - N/A   Clear